Weather History for Jordan, MT

Change the Weather History Date:

Tuesday, May 8, 2012

  Actual Average Record
Temperature  
Mean Temperature 49 °F 50 °F  
Max Temperature 71 °F 65 °F 95 °F (1934)
Min Temperature 27 °F 36 °F 14 °F (1945)
Degree Days  
Heating Degree Days 16 15  
Month to date heating degree days 129 127  
Since 1 July heating degree days 6463 7861  
Cooling Degree Days 0 0  
Month to date cooling degree days 0 0  
Year to date cooling degree days 3 0  
Moisture  
Dew Point 27 °F    
Average Humidity 56    
Maximum Humidity 92    
Minimum Humidity 20    
Precipitation  
Precipitation 0.00 in 0.06 in 0.38 in (1986)
Month to date precipitation 0.14 0.44  
Year to date precipitation 1.84 2.52  
Snow  
Snow 0.00 in - - ()
Month to date snowfall 0.0  
Since 1 July snowfall 0.0  
Snow Depth 0.00 in    
Sea Level Pressure  
Sea Level Pressure 30.13 in    
Wind  
Wind Speed 6 mph (SSE)    
Max Wind Speed 17 mph    
Max Gust Speed 26 mph    
T = Trace of Precipitation, MM = Missing Value Source: NWS Daily Summary

Daily Weather History Graph

Daily Weather History Graph

Search for Another Location

Airport:

Trip Planner

Search our weather history database for the weather conditions in past years. The results will help you decide how hot, cold, wet, or windy it might be!

Date:

Astronomy

May. 08, 2012 Rise Set
Actual Time 5:39 AM MDT 8:29 PM MDT
Civil Twilight 5:04 AM MDT 9:04 PM MDT
Nautical Twilight 4:19 AM MDT 9:50 PM MDT
Astronomical Twilight 3:26 AM MDT 10:44 PM MDT
Moon 11:47 PM MDT (5/8) 7:44 AM MDT (5/8)
Length of Visible Light 16h 00m
Length of Day
14h 49m
Waning Gibbous, 90% of the Moon is Illuminated
May 8
Waning Gibbous
May 12
Last Quarter
May 20
New
May 28
First Quarter
Jun 4
Full

Hourly Weather History & Observations

Time (MDT) Temp. Windchill Dew Point Humidity Pressure Visibility Wind Dir Wind Speed Gust Speed Precip Events Conditions
12:48 AM 32.0 °F - 28.0 °F 85% 30.26 in - Calm Calm - N/A   Unknown
1:48 AM 30.9 °F - 27.0 °F 85% 30.26 in - Calm Calm - N/A   Unknown
2:48 AM 30.9 °F 26.2 °F 27.0 °F 85% 30.25 in - West 4.6 mph - N/A   Unknown
3:48 AM 30.0 °F 24.1 °F 27.0 °F 88% 30.26 in - West 5.8 mph - N/A   Unknown
4:48 AM 30.0 °F 24.1 °F 26.1 °F 85% 30.25 in - West 5.8 mph - N/A   Unknown
5:48 AM 27.0 °F 23.0 °F 25.0 °F 92% 30.26 in - WSW 3.5 mph - N/A   Unknown
6:48 AM 32.0 °F - 28.0 °F 85% 30.25 in - Calm Calm - N/A   Unknown
7:48 AM 41.0 °F - 30.9 °F 67% 30.24 in - Calm Calm - N/A   Unknown
8:48 AM 51.1 °F - 34.0 °F 52% 30.24 in - Calm Calm - N/A   Unknown
9:48 AM 57.0 °F - 28.0 °F 33% 30.22 in - SSE 4.6 mph - N/A   Unknown
10:48 AM 61.0 °F - 28.0 °F 29% 30.20 in - South 8.1 mph - N/A   Unknown
11:48 AM 63.0 °F - 26.1 °F 25% 30.18 in - South 8.1 mph - N/A   Unknown
12:48 PM 64.0 °F - 26.1 °F 24% 30.15 in - Variable 6.9 mph - N/A   Unknown
1:48 PM 66.0 °F - 26.1 °F 22% 30.12 in - SE 5.8 mph - N/A   Unknown
2:48 PM 68.0 °F - 26.1 °F 21% 30.09 in - SSE 6.9 mph 21.9 mph N/A   Unknown
3:48 PM 69.1 °F - 26.1 °F 20% 30.06 in - SSE 11.5 mph 19.6 mph N/A   Unknown
4:48 PM 69.1 °F - 26.1 °F 20% 30.04 in - South 10.4 mph 17.3 mph N/A   Unknown
5:48 PM 69.1 °F - 26.1 °F 20% 30.03 in - SSE 9.2 mph - N/A   Unknown
6:48 PM 68.0 °F - 26.1 °F 21% 30.01 in - SE 12.7 mph 18.4 mph N/A   Unknown
7:48 PM 64.9 °F - 28.0 °F 25% 29.98 in - SE 10.4 mph - N/A   Unknown
8:48 PM 57.9 °F - 28.0 °F 32% 29.97 in - SE 8.1 mph - N/A   Unknown
9:48 PM 54.0 °F - 28.0 °F 37% 29.97 in - ESE 8.1 mph - N/A   Unknown
10:48 PM 53.1 °F - 27.0 °F 37% 29.96 in - East 5.8 mph - N/A   Unknown
11:48 PM 53.1 °F - 28.0 °F 38% 29.94 in - East 8.1 mph - N/A   Unknown